This is the latest recevied weather packets stored in our database for station/object HB0PJ-13. If no packets are shown the sender has not sent any weather packets the latest 10 day(s).
| Time | Temp. | Humidity | Pressure | Rain* | Wind** | Luminosity | Snow |
|---|---|---|---|---|---|---|---|
| 1777892343 | 21.67° C | 36% | 956.7 hPa | - | - | 35 W/m² | - |
| 1777892223 | 21.67° C | 37% | 956.6 hPa | - | - | 35 W/m² | - |
| 1777892103 | 21.67° C | 36% | 956.6 hPa | - | - | 35 W/m² | - |
| 1777891983 | 21.67° C | 36% | 956.9 hPa | - | - | 35 W/m² | - |
| 1777891863 | 21.67° C | 37% | 956.8 hPa | - | - | 41 W/m² | - |
| 1777891743 | 21.67° C | 38% | 956.7 hPa | - | - | 42 W/m² | - |
| 1777891383 | 21.67° C | 37% | 957 hPa | - | - | 55 W/m² | - |
| 1777891143 | 21.11° C | 37% | 957 hPa | - | - | 58 W/m² | - |
| 1777891023 | 21.11° C | 37% | 957 hPa | - | - | 57 W/m² | - |
| 1777890903 | 21.11° C | 38% | 957 hPa | - | - | 60 W/m² | - |
| 1777890783 | 21.11° C | 38% | 957.1 hPa | - | - | 54 W/m² | - |
| 1777890663 | 20.56° C | 40% | 957.1 hPa | - | - | 57 W/m² | - |
| 1777890543 | 20.56° C | 40% | 957.1 hPa | - | - | 47 W/m² | - |
| 1777890423 | 20.56° C | 41% | 957.3 hPa | - | - | 41 W/m² | - |
| 1777890183 | 20° C | 40% | 957.3 hPa | - | - | 47 W/m² | - |
| 1777889943 | 20° C | 40% | 957.5 hPa | - | - | 35 W/m² | - |
| 1777889823 | 20° C | 43% | 957.4 hPa | - | - | 34 W/m² | - |
| 1777889703 | 20° C | 42% | 957.4 hPa | - | - | 33 W/m² | - |
| 1777889583 | 20° C | 42% | 957.4 hPa | - | - | 30 W/m² | - |
| 1777889223 | 20° C | 43% | 957.5 hPa | - | - | 27 W/m² | - |
| 1777888984 | 20° C | 45% | 957.5 hPa | - | - | 27 W/m² | - |
| 1777888865 | 20° C | 45% | 957.4 hPa | - | - | 28 W/m² | - |
| 1777888624 | 20° C | 45% | 957.5 hPa | - | - | 29 W/m² | - |
| 1777888505 | 20° C | 45% | 957.5 hPa | - | - | 30 W/m² | - |
| 1777888384 | 20° C | 45% | 957.5 hPa | - | - | 31 W/m² | - |
* Rain since midnight (hover to see other rain measurements)
** Current wind speed in m/s (hover to see current wind gust speed)